RH
15 17 18 16 20 28 33 32 36 44 44 41 36 35 46 53 56 53 53 56 52 62 78 78 79 79 74 69 65 64 58 55 57 56 53 51 49 50 47 49 54 55 55 51 47 50 49 44 46 47 46 47 47 48 49 48 48 47 46 45 41 42 43 44 46 46 46 46 46 45 45 48 48 49 50 51 53 54 56 54 46 47 48 43 43 45
12 14 17 17 18 25 34 35 35 39 39 36 31 28 37 47 49 47 50 52 46 54 68 66 70 80 76 70 68 66 63 60 57 54 54 52 51 51 48 48 52 51 54 55 48 48 50 45 45 45 45 47 45 46 49 47 47 46 46 45 41 41 41 42 44 45 45 45 46 46 46 48 48 46 48 50 52 54 55 51 47 50 49 44 44 44
11 13 15 17 18 20 26 27 25 29 31 31 27 21 28 38 42 45 49 50 45 48 55 53 59 72 74 72 72 70 67 63 58 55 54 53 51 51 51 50 51 50 52 56 51 48 49 47 46 44 43 46 46 45 47 46 46 46 46 45 42 40 39 40 42 44 45 45 46 47 47 49 48 46 47 50 51 53 52 46 47 51 47 44 46 44
17 15 12 15 18 17 17 17 16 20 23 24 22 18 25 32 35 42 48 49 47 47 51 54 60 67 71 71 70 69 67 65 60 56 55 56 52 49 50 52 53 50 49 55 54 49 49 49 46 45 43 44 46 44 44 45 45 45 46 44 43 40 38 40 39 41 45 45 44 46 46 46 45 44 45 45 48 51 49 45 46 47 43 43 48 46
17 14 12 13 14 13 13 14 15 16 17 19 19 18 25 33 34 37 43 46 46 48 51 56 60 65 69 72 70 67 65 65 62 57 54 55 54 51 50 51 53 51 49 53 55 52 52 50 47 46 44 44 46 45 43 44 42 44 46 44 42 39 38 39 35 36 42 41 41 42 43 44 43 41 41 41 44 48 48 44 43 41 38 42 47 46
12 11 11 11 10 10 12 13 14 14 15 18 20 18 21 30 35 33 36 42 44 46 50 51 55 63 66 66 70 71 66 65 64 60 57 54 53 55 54 51 50 50 49 49 53 54 52 51 48 46 45 44 46 46 42 43 42 42 45 43 41 39 39 38 30 28 34 34 35 37 39 42 42 40 39 39 41 46 47 44 42 39 36 40 45 45
13 12 11 10 10 10 10 11 12 13 13 16 22 24 21 24 28 26 28 36 40 42 45 43 47 61 69 67 70 72 70 69 67 63 60 56 54 56 59 56 49 47 49 47 51 55 52 52 48 44 45 45 46 48 44 43 41 42 45 43 40 38 39 38 29 24 27 29 31 34 38 41 41 40 39 40 43 45 46 46 44 39 37 39 43 44
15 15 12 11 12 11 11 11 10 11 11 14 22 28 26 20 20 21 23 30 34 34 36 38 43 55 67 73 74 73 73 74 73 68 64 62 59 57 60 63 55 47 48 47 49 54 55 54 48 43 45 44 46 47 45 45 42 42 45 42 40 37 37 38 32 26 26 26 27 31 36 38 41 43 40 41 46 46 45 47 44 39 38 39 41 42
16 17 15 13 13 15 15 14 11 10 10 16 21 23 23 19 17 19 22 28 32 33 35 38 43 53 63 71 76 76 74 74 76 75 71 68 66 62 59 63 62 52 49 48 46 50 57 58 49 43 44 46 49 48 46 48 45 43 45 43 40 37 36 37 32 28 27 26 24 28 33 35 40 44 40 42 46 44 43 44 43 40 39 38 38 41
16 17 15 14 16 18 18 13 11 10 11 16 19 17 18 16 16 19 22 28 33 37 39 38 42 52 60 65 72 77 75 75 77 77 74 70 70 70 63 62 65 61 55 51 46 47 54 59 53 47 47 48 52 52 47 47 48 46 45 43 41 37 37 38 32 28 29 27 24 26 31 33 36 40 41 42 44 43 43 43 42 41 41 39 37 38
16 14 12 14 16 17 16 13 11 10 10 14 16 17 18 17 17 21 24 29 36 39 38 36 38 47 55 60 67 72 71 73 78 76 73 73 74 75 72 69 69 68 60 52 49 48 52 58 55 50 49 49 54 55 49 49 53 52 46 43 41 36 38 39 33 30 29 28 26 26 31 33 34 37 39 40 41 41 41 42 43 41 39 40 39 39
15 14 15 15 14 15 15 14 13 11 11 14 17 23 29 29 27 25 25 28 33 36 34 36 39 42 52 61 67 70 67 70 80 79 75 76 76 76 75 74 72 71 65 56 53 50 49 53 54 52 52 51 53 55 53 53 53 51 48 44 41 37 37 38 35 33 31 30 29 29 31 32 33 36 38 38 38 38 37 39 42 41 39 39 41 43
18 18 18 15 14 15 15 16 15 15 15 15 19 29 36 38 37 33 31 30 30 31 31 36 39 41 52 61 65 71 69 70 80 82 78 75 74 74 74 73 72 74 72 62 57 53 49 49 51 53 54 51 49 52 54 56 53 50 51 49 43 38 36 36 37 37 35 34 33 32 32 31 31 33 36 36 36 36 35 37 40 41 40 40 42 45
24 26 22 17 17 15 15 20 23 25 25 19 23 33 34 34 38 37 34 33 32 30 30 35 38 43 56 62 63 70 73 74 76 77 77 73 69 71 74 73 72 75 76 69 63 57 50 48 49 52 54 50 47 48 51 56 55 52 54 53 46 41 38 36 37 39 39 38 38 36 34 33 30 30 32 34 34 34 35 36 38 41 42 41 43 45
26 34 28 22 23 19 16 21 24 26 27 24 27 35 33 29 33 34 31 31 31 30 31 35 40 48 61 65 64 68 72 73 73 72 72 71 69 69 71 72 72 76 79 77 72 65 55 50 50 52 52 48 46 46 47 51 50 49 55 56 49 44 41 38 37 40 40 41 42 40 38 37 35 32 32 32 32 32 34 36 39 40 41 41 43 44
25 33 29 23 23 20 18 20 18 16 22 27 29 31 31 28 29 29 27 28 30 32 35 36 41 51 60 63 65 67 67 64 67 71 70 69 71 71 70 69 71 78 81 80 77 73 65 54 52 54 51 46 46 45 45 47 45 44 51 54 49 45 43 41 39 40 41 41 43 42 39 41 40 37 35 33 30 30 32 35 38 39 40 40 41 43
27 30 29 26 23 18 18 20 18 16 22 30 31 29 27 26 28 31 32 31 31 34 36 34 40 51 56 61 65 67 67 62 62 67 68 68 69 70 70 67 68 74 76 77 78 78 74 64 58 56 52 49 48 46 43 45 46 43 44 50 52 49 46 44 42 42 43 42 43 42 40 42 44 41 39 37 33 32 32 33 36 37 38 38 40 42
26 29 30 28 24 21 19 18 18 17 20 28 31 29 28 28 28 28 30 35 36 34 33 30 36 45 51 59 64 65 68 63 57 59 66 71 69 68 71 72 71 72 70 73 77 77 78 75 67 61 57 54 53 50 46 44 44 44 42 46 48 47 46 46 47 49 47 43 42 42 40 41 44 43 43 43 40 38 35 34 34 35 36 37 37 38
19 24 29 25 21 22 19 16 18 18 17 21 24 25 29 32 32 28 27 32 34 32 32 28 29 39 50 60 64 63 66 60 52 54 61 69 73 72 73 74 74 74 73 73 75 78 80 79 76 71 65 61 58 56 53 47 45 44 41 42 43 47 52 53 53 53 49 48 46 43 41 42 43 44 45 45 45 44 41 38 35 35 36 35 35 36
16 21 30 28 21 20 19 17 22 27 26 23 19 19 26 30 32 34 32 33 33 32 35 30 31 48 60 64 66 63 62 59 54 54 56 62 72 75 74 75 74 73 76 78 78 80 80 78 79 80 75 69 62 60 60 56 52 47 44 44 44 48 55 55 55 56 51 52 53 47 43 43 42 42 43 45 46 46 46 44 42 40 38 36 36 38
16 20 29 30 22 20 24 25 27 34 36 33 27 25 30 31 31 33 31 31 32 35 39 33 37 59 68 63 63 60 58 60 57 55 55 58 69 75 76 77 76 71 73 79 79 79 81 79 80 82 81 75 66 64 64 60 57 56 57 58 50 45 49 47 50 57 55 54 58 55 47 44 44 42 41 42 43 44 48 48 47 46 44 42 41 41
17 20 25 28 26 28 34 32 27 29 31 32 31 30 35 38 38 38 34 31 31 34 39 34 38 61 67 57 55 54 54 59 59 55 55 60 69 76 78 79 78 75 74 77 78 77 78 79 79 80 79 75 70 68 66 60 56 57 60 59 52 48 49 44 45 54 56 59 66 60 47 45 50 47 41 39 40 41 43 45 46 46 46 46 46 45
17 19 20 24 26 28 31 29 25 24 24 25 26 28 32 35 38 41 40 37 35 33 34 32 37 55 61 53 51 51 52 56 57 55 53 57 67 75 79 79 78 79 76 75 76 75 74 75 76 79 79 77 75 73 70 62 57 56 56 54 53 53 52 49 52 55 52 55 60 55 45 44 50 52 46 39 39 40 40 40 43 44 44 44 46 47
15 19 19 23 27 25 22 22 21 21 21 22 25 27 29 32 34 37 37 39 41 39 37 33 36 50 58 55 52 50 50 53 56 57 56 57 65 74 79 79 79 80 78 75 74 73 72 72 72 74 78 78 78 76 75 69 62 60 60 58 57 58 55 54 58 57 50 49 52 53 50 48 49 52 49 43 41 40 38 39 41 42 43 42 43 45
17 22 23 23 30 32 29 28 27 25 23 22 25 29 33 35 34 33 35 37 39 41 44 40 42 57 62 57 53 50 48 49 53 59 61 60 64 72 80 81 78 78 76 74 74 72 72 72 69 70 75 81 82 78 75 73 68 66 66 64 64 63 61 58 57 54 51 50 53 55 54 52 53 52 47 45 46 43 40 40 40 42 42 42 42 42
17 24 25 23 29 37 41 41 38 35 32 30 30 30 33 37 36 36 39 39 37 40 45 44 51 65 69 63 59 55 49 47 50 56 61 61 62 70 79 81 77 77 78 76 74 72 71 69 66 65 69 78 85 84 79 77 74 71 70 69 69 68 65 63 61 59 56 54 54 56 55 54 56 56 52 50 47 45 44 43 41 42 42 42 43 42
16 21 23 22 24 31 37 38 35 32 32 35 36 32 32 35 38 40 41 39 40 41 42 47 53 60 69 75 72 63 55 53 53 55 56 56 61 69 78 81 78 79 82 80 74 72 69 66 64 63 63 67 75 80 80 78 78 78 77 75 72 69 67 66 65 64 62 59 58 58 57 55 56 58 59 57 52 47 47 46 44 44 43 44 44 44
18 20 21 20 20 20 23 23 22 23 22 25 28 29 31 35 38 41 40 38 42 42 42 53 58 54 61 76 78 68 62 59 57 57 54 52 59 68 74 78 79 80 81 80 76 72 68 64 63 63 62 61 64 68 70 72 75 79 82 82 79 76 72 70 68 66 65 63 62 62 60 58 57 57 59 61 58 52 49 50 48 46 45 46 46 46
17 22 27 25 21 17 18 17 16 17 17 19 23 26 28 31 35 40 41 40 45 47 45 50 55 53 56 66 71 67 63 61 60 60 57 53 59 68 72 74 78 81 80 77 75 73 69 65 63 64 64 64 64 64 65 68 71 74 77 80 83 83 80 77 74 72 69 66 65 66 65 62 60 59 60 61 59 54 52 51 50 48 47 46 48 49
14 22 29 27 22 18 18 18 16 16 17 20 24 25 26 29 32 35 39 44 50 51 47 44 48 54 57 60 63 62 61 62 62 61 60 62 65 70 73 76 79 82 81 77 74 72 68 65 63 64 65 65 65 65 65 66 69 73 76 80 83 84 84 83 80 77 74 70 68 69 68 68 67 67 66 63 59 58 56 53 51 50 47 46 49 51
15 21 27 25 22 20 18 18 19 18 18 21 23 24 25 28 32 34 39 46 49 51 52 50 51 58 60 59 59 61 63 65 64 62 63 69 73 73 75 78 81 82 80 77 75 72 68 65 64 64 65 64 64 65 66 66 68 72 77 81 84 84 83 85 85 83 80 75 71 70 71 72 73 73 72 66 60 59 60 57 53 51 49 48 49 50
17 19 23 21 20 22 22 21 21 20 20 22 22 24 25 27 32 40 46 48 46 47 53 55 55 59 60 58 60 64 65 66 65 64 65 68 72 74 76 78 80 82 81 78 75 72 70 69 67 66 65 64 63 64 65 66 67 69 72 78 84 84 83 85 87 86 85 81 76 72 72 73 73 73 76 75 69 64 63 63 59 57 57 57 57 55
20 20 23 21 20 28 32 26 21 21 22 22 22 24 26 29 34 41 47 48 41 38 44 50 53 55 56 59 66 69 67 66 66 68 69 69 69 71 74 77 80 82 81 79 78 76 73 70 67 66 65 63 62 63 63 64 65 66 67 73 82 87 86 85 85 86 87 86 82 77 74 74 74 74 77 82 80 73 68 66 66 66 66 65 65 65
21 20 23 22 22 29 35 30 21 19 22 28 31 31 30 33 38 40 44 48 44 39 42 44 44 45 48 56 65 68 66 67 68 71 74 74 72 72 74 78 82 83 79 79 82 80 77 74 69 68 68 66 65 63 63 63 63 63 64 67 74 84 89 89 88 87 87 87 84 79 74 73 76 77 78 81 82 80 76 71 69 69 70 70 70 69
21 19 20 22 22 25 31 28 23 23 29 34 36 35 31 31 33 34 38 43 42 39 42 43 41 41 44 48 54 58 62 66 66 69 75 76 73 74 77 81 84 81 76 79 84 83 83 82 78 75 73 71 69 66 65 65 64 64 65 66 69 75 81 84 86 86 85 83 80 78 76 77 79 81 80 78 78 81 82 78 73 70 71 72 72 71
22 20 21 23 22 22 24 24 24 30 33 32 32 33 29 26 26 29 35 40 41 42 46 48 47 44 43 46 51 53 57 61 62 66 73 75 73 77 84 87 84 78 74 78 84 84 83 85 84 81 78 75 72 70 69 69 68 67 67 68 69 71 73 75 77 78 78 77 77 78 81 84 86 86 83 80 79 82 84 82 75 70 70 72 73 72
21 20 22 24 23 22 22 22 25 28 27 28 35 35 29 28 31 34 40 44 46 52 54 50 49 50 48 50 54 55 55 57 62 67 71 73 73 78 85 88 86 83 79 78 80 80 80 82 82 81 80 78 76 74 72 71 71 70 69 69 70 72 74 76 77 77 77 77 79 83 85 87 89 87 83 80 80 83 84 81 76 71 70 72 72 72
22 20 22 24 25 23 23 23 27 29 29 34 44 41 31 31 35 35 39 43 48 55 55 47 48 55 55 52 52 55 57 58 63 68 69 70 72 75 79 82 84 85 80 73 73 73 72 72 73 74 75 76 77 76 75 73 71 69 69 68 68 71 75 78 80 80 81 81 82 84 85 85 87 86 82 79 77 78 80 80 80 78 77 76 74 72
27 22 20 22 25 25 25 25 26 29 35 42 45 39 32 32 32 31 35 42 49 57 56 51 53 58 58 54 52 55 58 63 71 74 70 68 70 73 75 76 76 77 74 69 68 69 67 65 65 65 66 68 71 73 73 73 72 69 68 67 67 69 74 78 80 79 79 78 78 80 81 82 84 83 78 75 73 72 73 75 77 79 81 81 80 78
31 27 21 19 22 24 25 25 24 30 39 42 38 34 34 35 32 33 41 49 54 56 57 58 59 58 55 53 54 57 61 68 76 77 71 68 68 69 71 72 72 74 72 68 66 66 64 63 61 60 60 62 64 67 69 69 69 69 68 67 67 69 71 74 76 75 75 74 74 77 78 77 78 78 75 73 73 73 73 72 73 77 80 80 82 88
33 29 23 19 19 20 23 23 23 30 40 40 32 32 35 34 32 38 49 52 52 53 54 53 52 51 50 51 57 65 69 70 73 73 70 70 69 64 62 64 68 73 72 69 66 63 61 60 59 59 60 60 60 63 65 66 66 66 67 67 67 68 68 68 70 71 72 72 72 74 74 71 68 65 64 64 67 70 72 71 71 74 77 75 75 84
32 28 25 20 18 22 27 29 27 32 39 38 33 32 32 31 37 47 52 49 46 50 53 50 47 48 48 50 59 68 69 68 68 67 67 71 69 63 59 60 65 71 71 68 65 61 59 58 58 58 59 59 60 61 63 65 67 68 68 68 68 68 66 64 64 64 64 65 65 66 66 64 61 58 56 57 58 61 64 66 67 71 73 74 73 75
35 30 27 23 21 23 29 30 30 36 42 40 36 35 32 32 39 46 45 41 40 44 48 48 49 50 50 53 58 61 60 62 63 62 65 69 65 61 62 64 67 70 69 67 64 61 59 58 57 57 58 59 60 62 63 65 68 69 69 69 69 68 65 62 60 59 59 58 56 55 55 55 56 56 55 54 55 56 58 60 63 67 70 72 73 73
39 34 31 30 27 26 29 34 37 43 45 39 35 37 37 36 37 38 39 39 39 40 44 46 46 48 51 53 54 54 55 58 59 59 63 65 61 58 62 66 69 70 68 66 64 62 60 60 58 58 58 56 55 58 60 62 64 66 65 64 63 61 60 59 58 58 58 56 54 51 49 47 49 52 53 53 53 55 57 59 61 64 66 67 68 69
43 40 39 39 37 35 38 42 45 48 48 40 35 36 37 36 34 34 38 41 39 38 40 42 41 41 45 48 49 50 52 54 56 57 59 58 56 58 63 67 69 70 70 68 66 64 63 62 61 60 58 56 53 51 52 54 58 62 63 61 59 58 56 55 55 56 56 55 53 52 49 47 47 48 51 52 52 53 56 59 62 65 67 69 69 69
43 43 41 40 41 43 45 43 40 43 46 41 34 32 32 34 35 35 38 40 38 34 36 39 39 37 40 45 47 48 49 51 54 57 57 55 57 63 67 69 70 70 70 69 68 67 66 65 64 62 60 58 56 53 51 50 52 57 62 62 60 60 59 57 56 56 56 53 51 50 49 48 48 47 48 49 50 51 53 57 60 62 65 69 72 71
44 42 38 37 40 44 46 45 40 39 40 37 31 29 29 31 34 36 37 37 35 31 33 36 35 35 37 41 44 47 50 50 51 54 54 56 61 65 67 69 71 71 71 70 68 67 66 66 67 65 62 59 57 54 54 53 50 53 59 61 60 61 62 61 60 60 59 57 54 52 50 48 47 45 45 46 48 48 48 50 52 54 57 61 67 70
49 44 38 36 39 41 45 49 45 37 36 36 34 33 33 33 33 34 36 35 33 31 33 33 33 34 36 38 41 46 49 49 49 49 48 51 59 64 64 66 68 70 71 70 69 68 67 67 68 67 64 61 57 52 51 50 48 46 47 51 54 57 60 60 60 59 59 57 55 55 54 52 50 47 43 42 44 45 46 46 47 49 51 53 57 62
52 50 43 40 41 44 48 49 41 34 34 34 33 36 38 36 35 36 36 35 33 33 33 32 31 34 35 36 39 44 47 48 48 46 44 48 55 58 59 61 64 66 67 68 69 69 68 67 67 66 65 63 59 53 48 46 44 41 39 41 43 47 53 58 58 57 55 54 53 52 52 50 50 50 47 43 41 40 42 43 44 45 47 49 52 55
49 48 46 44 42 44 50 50 41 36 39 38 35 37 37 34 34 35 34 33 32 32 33 32 31 34 36 37 39 43 46 48 46 43 43 47 50 53 55 57 58 60 61 62 63 64 66 66 65 63 63 61 58 54 50 46 43 40 38 37 36 37 41 48 52 50 48 47 46 46 47 45 44 45 46 45 43 40 38 38 40 40 42 44 45 48
51 47 46 46 44 44 51 54 45 38 42 44 41 39 37 33 34 34 31 31 31 31 33 33 33 36 37 38 39 42 45 47 45 41 41 42 44 47 49 50 52 54 55 56 57 57 59 60 59 58 57 56 54 52 50 47 44 42 39 36 35 34 32 34 39 43 42 40 37 37 39 40 40 40 39 40 42 42 39 37 36 35 36 38 39 39